Simultaneous Nadir Overpasses (SNOs) Predictions

Prediction of SNOs between LANDSAT-8 and NOAA-19 Satellite Orbit:

Table of predicted SNOs for the next 14.0 days since TLE Epoch: 5/27/2023
Index Date (LANDSAT-8) Time (LANDSAT-8) Lat,Lon (LANDSAT-8) SZA (LANDSAT-8 ) Date (NOAA-19) Time (NOAA-19) Lat,Lon (NOAA-19) SZA (NOAA-19 ) Distance(km) Time Diff (sec)
1 05/28/2023 08:51:11 80.94, 84.52 61.50 05/28/2023 08:51:20 80.95, 84.65 61.53 2.32 9
2 05/30/2023 14:24:55 -80.95,-178.76 118.83 05/30/2023 14:23:54 -80.94,-178.73 118.86 0.96 61
3 05/30/2023 15:14:22 80.93, -11.41 61.13 05/30/2023 15:14:51 80.94, -11.30 61.16 2.55 29
4 06/01/2023 20:48:06 -80.94, 85.23 119.19 06/01/2023 20:47:25 -80.94, 85.07 119.21 2.97 41
5 06/01/2023 21:37:32 80.94,-107.09 60.82 06/01/2023 21:38:21 80.95,-106.93 60.86 2.87 49
6 06/04/2023 03:11:16 -80.94, -10.51 119.47 06/04/2023 03:10:54 -80.94, -10.43 119.47 1.45 22
7 06/04/2023 04:00:42 80.94, 157.15 60.53 06/04/2023 04:01:52 80.94, 157.02 60.55 2.39 70
8 06/06/2023 09:34:26 -80.94,-106.33 119.74 06/06/2023 09:34:24 -80.94,-106.36 119.73 0.92 2
9 06/08/2023 15:08:09 80.93, -9.91 60.02 06/08/2023 15:06:55 80.94, -9.78 60.02 3.11 74



Historial Predications of SNOs between LANDSAT-8 and NOAA-19
